Location: Dodge City Community College Clyde Tombaugh Astronomy Center
(37.7756°N, 100.0412°W)
Time: 23:18:25
(UTC+00:00)

N. Korean satellite - Pass Details

Date: 04 December 2022
Orbit: 407 x 442 km, 97.3° (Epoch: 04 February)

Event Time Altitude Azimuth Distance (km) Brightness Sun altitude
Rises 12:50:08 0° 352° (N) 2,509 9.9 -9.7°
Reaches altitude 10° 12:52:45 10° 331° (NNW) 1,620 8.8 -9.3°
Maximum altitude 12:54:59 16° 291° (WNW) 1,270 8.0 -8.9°
Drops below altitude 10° 12:57:11 10° 251° (WSW) 1,595 8.7 -8.4°
Sets 12:59:44 0° 229° (SW) 2,451 9.9 -8.0°
